RYR5225 EINN-EGGP

Flight info

Callsign RYR5225
Flight time 0h 47m
Altitude 29000
Route AGINI3A AGINI DCT BOFUM
Aircraft B738/M-SDE2E3FGHIRWXY/LB1

Departure

Time 2026-04-29 18:33
Airport Shannon Airport (EINN)

Arrival

Time 2026-04-29 19:20
Airport Liverpool John Lennon Airport (EGGP)
Time Latitude Longitude Altitude Speed Heading
2026-04-29 17:57 52.69361 -8.91877 22 ft 0 kts 225°
2026-04-29 17:57 52.69364 -8.91872 23 ft 0 kts 225°
2026-04-29 18:02 52.69364 -8.91871 23 ft 0 kts 225°
2026-04-29 18:04 52.69365 -8.91871 21 ft 0 kts 225°
2026-04-29 18:22 52.69374 -8.91857 22 ft 4 kts 230°
2026-04-29 18:22 52.69387 -8.91821 25 ft 3 kts 250°
2026-04-29 18:23 52.69393 -8.91787 23 ft 4 kts 272°
2026-04-29 18:23 52.69383 -8.91757 26 ft 4 kts 322°
2026-04-29 18:23 52.69370 -8.91747 25 ft 1 kts 345°
2026-04-29 18:26 52.69381 -8.91753 26 ft 3 kts 344°
2026-04-29 18:26 52.69413 -8.91781 24 ft 7 kts 323°
2026-04-29 18:27 52.69430 -8.91814 21 ft 0 kts 300°
2026-04-29 18:27 52.69439 -8.91844 22 ft 6 kts 293°
2026-04-29 18:27 52.69455 -8.91943 21 ft 12 kts 268°
2026-04-29 18:28 52.69466 -8.92097 21 ft 14 kts 290°
2026-04-29 18:28 52.69507 -8.92239 22 ft 14 kts 296°
2026-04-29 18:28 52.69556 -8.92368 22 ft 13 kts 310°
2026-04-29 18:28 52.69621 -8.92470 21 ft 13 kts 317°
2026-04-29 18:29 52.69682 -8.92572 22 ft 12 kts 312°
2026-04-29 18:29 52.69740 -8.92675 22 ft 12 kts 313°
2026-04-29 18:29 52.69801 -8.92766 22 ft 12 kts 317°
2026-04-29 18:29 52.69858 -8.92860 25 ft 11 kts 315°
2026-04-29 18:30 52.69874 -8.92885 26 ft 0 kts 315°
2026-04-29 18:31 52.69879 -8.92894 27 ft 4 kts 315°
2026-04-29 18:32 52.69912 -8.92945 34 ft 7 kts 322°
2026-04-29 18:32 52.70009 -8.92921 36 ft 11 kts 71°
2026-04-29 18:32 52.70022 -8.92872 35 ft 0 kts 57°
2026-04-29 18:33 52.70022 -8.92871 35 ft 3 kts 57°
2026-04-29 18:33 52.70224 -8.92438 32 ft 93 kts 51°
2026-04-29 18:33 52.70788 -8.91238 84 ft 165 kts 52°
2026-04-29 18:33 52.71387 -8.89962 802 ft 175 kts 53°
2026-04-29 18:34 52.71618 -8.89478 1096 ft 177 kts 55°
2026-04-29 18:34 52.72096 -8.88499 1453 ft 156 kts 56°
2026-04-29 18:34 52.73060 -8.86552 968 ft 176 kts 54°
2026-04-29 18:34 52.73875 -8.85174 1474 ft 167 kts 30°
2026-04-29 18:35 52.75052 -8.84808 2182 ft 183 kts 17°
2026-04-29 18:35 52.76396 -8.84319 2462 ft 211 kts 20°
2026-04-29 18:35 52.77884 -8.83635 2786 ft 230 kts 22°
2026-04-29 18:35 52.79490 -8.82799 3076 ft 251 kts 24°
2026-04-29 18:36 52.80934 -8.81236 3746 ft 248 kts 58°
2026-04-29 18:36 52.81664 -8.78700 4643 ft 247 kts 72°
2026-04-29 18:36 52.82285 -8.76015 5494 ft 251 kts 72°
2026-04-29 18:36 52.82913 -8.73280 6352 ft 256 kts 73°
2026-04-29 18:37 52.83495 -8.70744 7117 ft 259 kts 73°
2026-04-29 18:37 52.84140 -8.67953 7973 ft 261 kts 73°
2026-04-29 18:37 52.84797 -8.65131 8769 ft 266 kts 73°
2026-04-29 18:37 52.85342 -8.62788 9150 ft 271 kts 73°
2026-04-29 18:38 52.86037 -8.59787 9701 ft 270 kts 73°
2026-04-29 18:38 52.86718 -8.56872 10224 ft 271 kts 73°
2026-04-29 18:38 52.87408 -8.53946 10711 ft 273 kts 72°
2026-04-29 18:38 52.88105 -8.51010 11205 ft 275 kts 72°
2026-04-29 18:39 52.88812 -8.48057 11703 ft 277 kts 72°
2026-04-29 18:39 52.89527 -8.45092 12200 ft 278 kts 73°
2026-04-29 18:39 52.90247 -8.42013 12408 ft 299 kts 73°
2026-04-29 18:39 52.91009 -8.38667 12598 ft 321 kts 73°
2026-04-29 18:40 52.91821 -8.35092 12777 ft 342 kts 73°
2026-04-29 18:40 52.92682 -8.31327 13222 ft 353 kts 73°
2026-04-29 18:40 52.93564 -8.27498 13923 ft 357 kts 73°
2026-04-29 18:40 52.94455 -8.23641 14582 ft 360 kts 73°
2026-04-29 18:41 52.97167 -8.11875 16425 ft 372 kts 74°
2026-04-29 18:41 52.98091 -8.07849 17028 ft 375 kts 74°
2026-04-29 18:42 52.99024 -8.03779 17642 ft 379 kts 74°
2026-04-29 18:42 52.99967 -7.99655 18212 ft 383 kts 74°
2026-04-29 18:42 53.00916 -7.95496 18761 ft 387 kts 75°
2026-04-29 18:42 53.01873 -7.91294 19288 ft 390 kts 75°
2026-04-29 18:43 53.02829 -7.87092 19838 ft 392 kts 75°
2026-04-29 18:43 53.03798 -7.82823 20370 ft 394 kts 75°
2026-04-29 18:43 53.04766 -7.78553 20880 ft 397 kts 75°
2026-04-29 18:43 53.05740 -7.74241 21349 ft 400 kts 75°
2026-04-29 18:44 53.06716 -7.69910 21861 ft 402 kts 75°
2026-04-29 18:44 53.07701 -7.65535 22351 ft 404 kts 75°
2026-04-29 18:44 53.08690 -7.61133 22806 ft 407 kts 75°
2026-04-29 18:44 53.09682 -7.56705 23282 ft 410 kts 75°
2026-04-29 18:45 53.10679 -7.52246 23726 ft 412 kts 75°
2026-04-29 18:45 53.11682 -7.47753 24087 ft 415 kts 75°
2026-04-29 18:45 53.12677 -7.43282 24429 ft 418 kts 75°
2026-04-29 18:45 53.13689 -7.38724 24795 ft 421 kts 75°
2026-04-29 18:46 53.14704 -7.34146 25145 ft 423 kts 75°
2026-04-29 18:46 53.15725 -7.29528 25473 ft 426 kts 75°
2026-04-29 18:46 53.16749 -7.24881 25802 ft 428 kts 75°
2026-04-29 18:46 53.17779 -7.20205 26125 ft 431 kts 75°
2026-04-29 18:47 53.18814 -7.15491 26456 ft 433 kts 75°
2026-04-29 18:47 53.19851 -7.10761 26755 ft 436 kts 75°
2026-04-29 18:47 53.20895 -7.05990 27067 ft 438 kts 76°
2026-04-29 18:47 53.21940 -7.01204 27474 ft 438 kts 76°
2026-04-29 18:48 53.22979 -6.96438 27962 ft 437 kts 76°
2026-04-29 18:48 53.24000 -6.91744 28406 ft 436 kts 76°
2026-04-29 18:48 53.25031 -6.86990 28820 ft 436 kts 76°
2026-04-29 18:48 53.26061 -6.82225 29201 ft 436 kts 76°
2026-04-29 18:49 53.28124 -6.72643 29256 ft 438 kts 76°
2026-04-29 18:49 53.30174 -6.63092 29256 ft 436 kts 76°
2026-04-29 18:50 53.32209 -6.53556 29262 ft 435 kts 76°
2026-04-29 18:50 53.34234 -6.44021 29264 ft 435 kts 77°
2026-04-29 18:51 53.36255 -6.34463 29264 ft 436 kts 77°
2026-04-29 18:51 53.38275 -6.24863 29265 ft 437 kts 77°
2026-04-29 18:52 53.40340 -6.15001 29260 ft 438 kts 77°
2026-04-29 18:52 53.42294 -6.05625 29270 ft 439 kts 77°
2026-04-29 18:53 53.44290 -5.96002 29261 ft 440 kts 77°
2026-04-29 18:53 53.46295 -5.86305 29247 ft 429 kts 77°
2026-04-29 18:54 53.48216 -5.76964 29258 ft 426 kts 77°
2026-04-29 18:54 53.50148 -5.67491 28803 ft 427 kts 77°
2026-04-29 18:55 53.51107 -5.62794 28346 ft 421 kts 77°
2026-04-29 18:55 53.52047 -5.58184 27906 ft 416 kts 77°
2026-04-29 18:55 53.52977 -5.53598 27454 ft 411 kts 77°
2026-04-29 18:55 53.53691 -5.49044 27072 ft 395 kts 90°
2026-04-29 18:56 53.53677 -5.44527 26747 ft 383 kts 98°
2026-04-29 18:56 53.53534 -5.40046 26375 ft 385 kts 98°
2026-04-29 18:56 53.53387 -5.35521 26151 ft 391 kts 97°
2026-04-29 18:56 53.53255 -5.31031 25760 ft 388 kts 97°
2026-04-29 18:57 53.53138 -5.26530 25328 ft 384 kts 97°
2026-04-29 18:57 53.53027 -5.22048 24880 ft 381 kts 97°
2026-04-29 18:57 53.52915 -5.17603 24430 ft 378 kts 96°
2026-04-29 18:57 53.52797 -5.13199 23970 ft 376 kts 97°
2026-04-29 18:58 53.52662 -5.08814 23453 ft 374 kts 97°
2026-04-29 18:58 53.52522 -5.04466 22955 ft 371 kts 97°
2026-04-29 18:58 53.52383 -5.00153 22499 ft 367 kts 97°
2026-04-29 18:58 53.52245 -4.95884 22050 ft 363 kts 97°
2026-04-29 18:59 53.52109 -4.91660 21606 ft 360 kts 97°
2026-04-29 18:59 53.51973 -4.87529 21172 ft 357 kts 97°
2026-04-29 18:59 53.51837 -4.83390 20747 ft 353 kts 97°
2026-04-29 18:59 53.51701 -4.79288 20321 ft 350 kts 97°
2026-04-29 19:00 53.51563 -4.75164 19888 ft 347 kts 97°
2026-04-29 19:00 53.51429 -4.71194 19473 ft 344 kts 97°
2026-04-29 19:00 53.51293 -4.67204 19051 ft 341 kts 97°
2026-04-29 19:00 53.51156 -4.63244 18638 ft 338 kts 97°
2026-04-29 19:01 53.51020 -4.59312 18165 ft 336 kts 97°
2026-04-29 19:01 53.50882 -4.55394 17714 ft 333 kts 97°
2026-04-29 19:01 53.50745 -4.51524 17285 ft 330 kts 97°
2026-04-29 19:01 53.50609 -4.47696 16864 ft 327 kts 97°
2026-04-29 19:02 53.50472 -4.43904 16462 ft 324 kts 97°
2026-04-29 19:02 53.50382 -4.41412 16175 ft 322 kts 97°
2026-04-29 19:02 53.50198 -4.36408 15628 ft 319 kts 96°
2026-04-29 19:02 53.50061 -4.32684 15238 ft 318 kts 96°
2026-04-29 19:03 53.49923 -4.28989 14834 ft 316 kts 96°
2026-04-29 19:03 53.49785 -4.25311 14439 ft 315 kts 96°
2026-04-29 19:03 53.49646 -4.21649 14040 ft 314 kts 96°
2026-04-29 19:03 53.49506 -4.17998 13576 ft 313 kts 96°
2026-04-29 19:04 53.49368 -4.14407 13171 ft 311 kts 96°
2026-04-29 19:04 53.49228 -4.10788 12762 ft 310 kts 96°
2026-04-29 19:04 53.49088 -4.07178 12350 ft 309 kts 96°
2026-04-29 19:04 53.48947 -4.03596 11953 ft 307 kts 96°
2026-04-29 19:05 53.48804 -4.00011 11557 ft 306 kts 96°
2026-04-29 19:05 53.48645 -3.96455 11166 ft 304 kts 99°
2026-04-29 19:05 53.48114 -3.93081 10940 ft 295 kts 110°
2026-04-29 19:05 53.47434 -3.89864 10773 ft 287 kts 111°
2026-04-29 19:06 53.46768 -3.86768 10644 ft 278 kts 111°
2026-04-29 19:06 53.46126 -3.83759 10528 ft 269 kts 110°
2026-04-29 19:06 53.44926 -3.78056 10313 ft 253 kts 110°
2026-04-29 19:07 53.44347 -3.75283 10053 ft 251 kts 110°
2026-04-29 19:07 53.44155 -3.74359 9975 ft 249 kts 110°
2026-04-29 19:07 53.43211 -3.69824 9520 ft 246 kts 110°
2026-04-29 19:07 53.42646 -3.67113 9248 ft 245 kts 110°
2026-04-29 19:08 53.42087 -3.64434 8979 ft 243 kts 110°
2026-04-29 19:08 53.41545 -3.61768 8715 ft 241 kts 105°
2026-04-29 19:08 53.41400 -3.59913 8455 ft 245 kts 91°
2026-04-29 19:08 53.41586 -3.57008 8041 ft 251 kts 86°
2026-04-29 19:09 53.41797 -3.54140 7848 ft 246 kts 86°
2026-04-29 19:09 53.41998 -3.51325 7737 ft 238 kts 86°
2026-04-29 19:09 53.42188 -3.48622 7649 ft 229 kts 86°
2026-04-29 19:09 53.42399 -3.46026 7588 ft 221 kts 78°
2026-04-29 19:10 53.43153 -3.43807 7498 ft 222 kts 52°
2026-04-29 19:10 53.44067 -3.41803 7455 ft 213 kts 78°
2026-04-29 19:10 53.44069 -3.39356 7515 ft 214 kts 101°
2026-04-29 19:10 53.44261 -3.36877 7367 ft 223 kts 65°
2026-04-29 19:11 53.45147 -3.34738 7318 ft 219 kts 63°
2026-04-29 19:11 53.45629 -3.32429 7162 ft 212 kts 99°
2026-04-29 19:11 53.44990 -3.30278 7215 ft 215 kts 139°
2026-04-29 19:11 53.43555 -3.29463 7229 ft 231 kts 179°
2026-04-29 19:12 53.42015 -3.30485 7001 ft 253 kts 216°
2026-04-29 19:12 53.40881 -3.32796 6716 ft 253 kts 219°
2026-04-29 19:12 53.39424 -3.34039 6427 ft 226 kts 176°
2026-04-29 19:12 53.38428 -3.33862 6299 ft 214 kts 158°
2026-04-29 19:13 53.36624 -3.32598 5983 ft 210 kts 155°
2026-04-29 19:13 53.35245 -3.31817 5751 ft 207 kts 153°
2026-04-29 19:13 53.33922 -3.30810 5527 ft 215 kts 148°
2026-04-29 19:13 53.32656 -3.29472 5280 ft 215 kts 133°
2026-04-29 19:14 53.31834 -3.27435 4962 ft 214 kts 114°
2026-04-29 19:14 53.31453 -3.24993 4548 ft 218 kts 97°
2026-04-29 19:14 53.31499 -3.22447 4157 ft 218 kts 89°
2026-04-29 19:14 53.31644 -3.19956 3857 ft 212 kts 89°
2026-04-29 19:15 53.31785 -3.17537 3575 ft 205 kts 89°
2026-04-29 19:15 53.31915 -3.15180 3224 ft 202 kts 89°
2026-04-29 19:15 53.32048 -3.12920 3017 ft 194 kts 86°
2026-04-29 19:15 53.32196 -3.10760 2784 ft 179 kts 87°
2026-04-29 19:16 53.32297 -3.08788 2651 ft 163 kts 88°
2026-04-29 19:16 53.32382 -3.06893 2512 ft 165 kts 88°
2026-04-29 19:16 53.32464 -3.05041 2296 ft 153 kts 88°
2026-04-29 19:16 53.32539 -3.03351 2096 ft 139 kts 87°
2026-04-29 19:17 53.32607 -3.01793 1927 ft 129 kts 87°
2026-04-29 19:17 53.32671 -3.00348 1744 ft 122 kts 87°
2026-04-29 19:17 53.32733 -2.98975 1584 ft 118 kts 89°
2026-04-29 19:17 53.32791 -2.97623 1437 ft 116 kts 89°
2026-04-29 19:18 53.32844 -2.96269 1213 ft 116 kts 87°
2026-04-29 19:18 53.32882 -2.95371 1148 ft 119 kts 85°
2026-04-29 19:18 53.32977 -2.93507 936 ft 121 kts 86°
2026-04-29 19:18 53.33038 -2.92089 699 ft 122 kts 86°
2026-04-29 19:19 53.33099 -2.90729 612 ft 117 kts 85°
2026-04-29 19:19 53.33136 -2.89993 473 ft 120 kts 88°
2026-04-29 19:19 53.33170 -2.89368 398 ft 120 kts 88°
2026-04-29 19:19 53.33228 -2.87951 288 ft 128 kts 87°
2026-04-29 19:20 53.33299 -2.86385 119 ft 136 kts 86°
2026-04-29 19:20 53.33363 -2.84957 89 ft 111 kts 85°
2026-04-29 19:20 53.33409 -2.83965 89 ft 58 kts 85°
2026-04-29 19:20 53.33429 -2.83539 90 ft 25 kts 86°
2026-04-29 19:21 53.33458 -2.83319 91 ft 6 kts 34°
2026-04-29 19:21 53.33499 -2.83299 88 ft 6 kts
2026-04-29 19:21 53.33542 -2.83311 88 ft 6 kts 337°
2026-04-29 19:21 53.33577 -2.83352 88 ft 6 kts 321°
2026-04-29 19:22 53.33598 -2.83423 92 ft 8 kts 275°
2026-04-29 19:22 53.33595 -2.83533 92 ft 10 kts 265°
2026-04-29 19:22 53.33590 -2.83647 88 ft 10 kts 265°
2026-04-29 19:22 53.33585 -2.83757 89 ft 9 kts 265°
2026-04-29 19:23 53.33580 -2.83865 88 ft 9 kts 265°
2026-04-29 19:23 53.33575 -2.83975 91 ft 10 kts 265°
2026-04-29 19:23 53.33569 -2.84095 92 ft 10 kts 265°
2026-04-29 19:23 53.33563 -2.84213 88 ft 10 kts 265°
2026-04-29 19:24 53.33557 -2.84337 91 ft 11 kts 265°
2026-04-29 19:24 53.33551 -2.84458 88 ft 10 kts 265°
2026-04-29 19:24 53.33545 -2.84591 88 ft 13 kts 265°
2026-04-29 19:24 53.33537 -2.84772 90 ft 18 kts 266°
2026-04-29 19:25 53.33527 -2.84992 88 ft 19 kts 265°
2026-04-29 19:25 53.33517 -2.85215 89 ft 20 kts 265°
2026-04-29 19:25 53.33505 -2.85453 88 ft 21 kts 265°
2026-04-29 19:25 53.33512 -2.85644 93 ft 10 kts 327°
2026-04-29 19:26 53.33581 -2.85658 92 ft 10 kts 347°
2026-04-29 19:26 53.33595 -2.85673 89 ft 1 kts 314°
2026-04-29 19:26 53.33603 -2.85710 88 ft 4 kts 282°
2026-04-29 19:26 53.33601 -2.85763 88 ft 5 kts 266°
2026-04-29 19:27 53.33609 -2.85813 90 ft 5 kts 308°
2026-04-29 19:27 53.33623 -2.85812 90 ft 2 kts 25°
2026-04-29 19:27 53.33630 -2.85801 89 ft 0 kts 37°
2026-04-29 19:27 53.33638 -2.85798 90 ft 1 kts 10°
2026-04-29 19:28 53.33643 -2.85797 90 ft 1 kts
2026-04-29 19:28 53.33646 -2.85797 90 ft 0 kts
2026-04-29 19:28 53.33647 -2.85797 90 ft 0 kts
2026-04-29 19:28 53.33648 -2.85797 90 ft 0 kts
2026-04-29 19:29 53.33649 -2.85797 89 ft 0 kts